FW8055 Weather Reports


time (UTC)temp
C
wind
direction
speed
KPH
gust
KPH
rain 1hr
cm
rain 24hr
cm
rain mn
cm
humidity
%
barometer
mb
20260510100054 11 0 0.0 0.0 0.00 0.00 0.00 88 1017.4
20260510094549 11 0 0.0 1.6 0.00 0.00 0.00 87 1017.2
20260510093051 11 0 0.0 0.0 0.00 0.00 0.00 87 1017.2
20260510091546 11 0 0.0 0.0 0.00 0.00 0.00 87 1016.9
20260510090048 11 0 0.0 1.6 0.00 0.00 0.00 87 1017.1
20260510084601 11 0 0.0 1.6 0.00 0.00 0.00 86 1017.0
20260510083043 11 0 0.0 0.0 0.00 0.00 0.00 86 1017.1
20260510081544 11 0 0.0 0.0 0.00 0.00 0.00 85 1016.7
20260510080100 11 0 0.0 1.6 0.00 0.00 0.00 84 1016.9
20260510074544 12 0 0.0 0.0 0.00 0.00 0.00 84 1017.0
20260510073053 12 0 0.0 0.0 0.00 0.00 0.00 83 1017.1
20260510071547 12 0 0.0 0.0 0.00 0.00 0.00 82 1017.0
20260510070050 12 0 0.0 0.0 0.00 0.00 0.00 81 1016.8
20260510064552 12 0 0.0 0.0 0.00 0.00 0.00 80 1016.6
20260510063043 13 0 0.0 1.6 0.00 0.00 0.00 78 1016.6
20260510061549 13 0 0.0 0.0 0.00 0.00 0.00 77 1016.5
20260510060050 13 0 0.0 1.6 0.00 0.00 0.00 75 1016.4
20260510054546 13 0 0.0 1.6 0.00 0.00 0.00 74 1016.4
20260510053048 13 0 0.0 3.2 0.00 0.00 0.00 72 1016.4
20260510051546 14 0 0.0 0.0 0.00 0.00 0.00 70 1016.3
20260510050055 15 0 0.0 0.0 0.00 0.00 0.00 67 1016.2
20260510044549 15 0 0.0 0.0 0.00 0.00 0.00 66 1016.1
20260510043048 15 0 0.0 0.0 0.00 0.00 0.00 64 1016.0
20260510041546 16 0 0.0 0.0 0.00 0.00 0.00 64 1015.8
20260510040055 17 0 0.0 0.0 0.00 0.00 0.00 62 1015.6
20260510034544 17 0 0.0 0.0 0.00 0.00 0.00 61 1015.3
20260510033053 18 0 0.0 0.0 0.00 0.00 0.00 55 1015.3
20260510031548 19 0 0.0 0.0 0.00 0.00 0.00 49 1015.1
20260510024543 21 0 0.0 0.0 0.00 0.00 0.00 43 1014.7
20260510023044 22 0 0.0 3.2 0.00 0.00 0.00 40 1014.7
20260510021635 23 0 0.0 3.2 0.00 0.00 0.00 37 1015.0
20260510020047 23 0 0.0 3.2 0.00 0.00 0.00 32 1015.0
20260510014557 23 342 0.0 4.8 0.00 0.00 0.00 31 1015.1
20260510013057 23 0 0.0 4.8 0.00 0.00 0.00 34 1015.2
20260510011546 23 0 0.0 4.8 0.00 0.00 0.00 34 1015.2
20260510010054 24 33 1.6 6.4 0.00 0.00 0.00 33 1015.4
20260510004544 23 11 0.0 4.8 0.00 0.00 0.00 33 1015.4
20260510003043 23 324 1.6 6.4 0.00 0.00 0.00 38 1015.4
20260510001544 24 360 3.2 14.5 0.00 0.00 0.00 41 1015.4
20260510000050 24 333 1.6 9.7 0.00 0.00 0.00 43 1015.4
20260509234545 23 229 1.6 14.5 0.00 0.00 0.00 47 1015.5
20260509233043 23 350 3.2 16.1 0.00 0.00 0.00 44 1015.7
20260509231547 23 15 1.6 12.9 0.00 0.00 0.00 49 1015.8
20260509230049 23 350 3.2 14.5 0.00 0.00 0.00 47 1015.9
20260509224548 23 0 1.6 8.0 0.00 0.00 0.00 48 1016.1
20260509223048 23 350 3.2 12.9 0.00 0.00 0.00 49 1016.3
20260509221548 23 352 1.6 12.9 0.00 0.00 0.00 53 1016.5
20260509220050 23 352 4.8 16.1 0.00 0.00 0.00 52 1016.7
20260509214547 23 24 4.8 12.9 0.00 0.00 0.00 53 1017.1
20260509213102 23 17 3.2 12.9 0.00 0.00 0.00 53 1017.3
20260509211542 22 336 6.4 14.5 0.00 0.00 0.00 54 1017.3
20260509210050 22 29 3.2 14.5 0.00 0.00 0.00 57 1017.4
20260509204546 22 39 3.2 14.5 0.00 0.00 0.00 58 1017.6
20260509203042 21 19 3.2 14.5 0.00 0.00 0.00 57 1017.7
20260509201549 21 352 3.2 14.5 0.00 0.00 0.00 60 1018.0
20260509200051 21 12 1.6 9.7 0.00 0.00 0.00 61 1018.1
20260509194553 20 5 3.2 11.3 0.00 0.00 0.00 61 1018.2
20260509193044 20 323 1.6 8.0 0.00 0.00 0.00 62 1018.4
20260509191556 20 13 1.6 8.0 0.00 0.00 0.00 64 1018.5
20260509190049 19 12 1.6 8.0 0.00 0.00 0.00 65 1018.6
20260509184550 18 232 4.8 12.9 0.00 0.00 0.00 64 1018.9
20260509183116 18 25 0.0 6.4 0.00 0.00 0.00 66 1019.0
20260509181551 17 32 3.2 8.0 0.00 0.00 0.00 68 1019.0
20260509180057 17 5 1.6 8.0 0.00 0.00 0.00 68 1019.2
20260509174546 16 17 0.0 8.0 0.00 0.00 0.00 70 1019.1
20260509173056 16 351 1.6 6.4 0.00 0.00 0.00 70 1019.2
20260509171543 15 23 1.6 6.4 0.00 0.00 0.00 73 1019.4
20260509170042 15 23 3.2 8.0 0.00 0.00 0.00 73 1019.6
20260509164546 15 323 1.6 8.0 0.00 0.00 0.00 75 1019.9
20260509163051 13 360 1.6 8.0 0.00 0.00 0.00 78 1020.1
20260509161557 13 5 0.0 6.4 0.00 0.00 0.00 78 1020.2
20260509160051 13 0 0.0 4.8 0.00 0.00 0.00 79 1020.3
20260509154551 12 45 0.0 3.2 0.00 0.00 0.00 82 1020.3
20260509153059 12 14 1.6 4.8 0.00 0.00 0.00 85 1020.5
20260509151549 11 0 0.0 3.2 0.00 0.00 0.00 89 1020.5
20260509150042 10 0 0.0 3.2 0.00 0.00 0.00 92 1020.6
20260509144550 9 0 0.0 0.0 0.00 0.00 0.00 96 1020.5
20260509143048 8 0 0.0 0.0 0.00 0.00 0.00 96 1020.6
20260509141549 7 0 0.0 0.0 0.00 0.00 0.00 95 1020.7
20260509140059 6 0 0.0 0.0 0.00 0.00 0.00 95 1020.6
20260509134549 6 0 0.0 0.0 0.00 0.00 0.00 94 1020.6
20260509133042 6 0 0.0 0.0 0.00 0.00 0.00 93 1020.6
20260509131545 6 0 0.0 0.0 0.00 0.00 0.00 93 1020.5
20260509130046 6 0 0.0 0.0 0.00 0.00 0.00 93 1020.8
20260509124550 6 0 0.0 0.0 0.00 0.00 0.00 93 1020.9
20260509123045 6 0 0.0 0.0 0.00 0.00 0.00 93 1020.9
20260509121549 6 0 0.0 0.0 0.00 0.00 0.00 92 1020.8
20260509120050 7 0 0.0 0.0 0.00 0.00 0.00 93 1020.9
20260509114547 7 0 0.0 0.0 0.00 0.00 0.00 92 1021.1
20260509113044 7 0 0.0 0.0 0.00 0.00 0.00 92 1020.9
20260509111542 7 0 0.0 0.0 0.00 0.00 0.00 92 1021.0
20260509110049 7 0 0.0 0.0 0.00 0.00 0.00 91 1021.2
20260509104543 7 0 0.0 0.0 0.00 0.00 0.00 91 1021.4
20260509103100 7 0 0.0 0.0 0.00 0.00 0.00 91 1021.4
20260509101542 8 0 0.0 0.0 0.00 0.00 0.00 91 1021.5